ATLAS 5 CENTAUR DEB, 43959

Orbit data source: Space-Track

ATLAS 5 CENTAUR DEB, 43959 is space debris in HEO originally from a launch on Wed, 17 Sep 2014 UTC launched from the Air Force Eastern Test Range (AFETR). Debris objects in space refer to the collection of defunct objects orbiting the Earth. Examples of debris include non-operational satellites, rocket bodies, and fragments generated from explosions, collisions, or faulty payload assembly.

Loading next visibility...
Identifier
43959, 2014-055N
Orbit
HEO
Country
Flag of USUS
Related business
Flag of USUnited Launch Alliance/Lockheed Martin (US)
Manufacturer
Unknown
Mission
Spacecraft
Bus & Motor
Unknown
Mass
Unknown
Launch date (UTC)
2014-09-17 (11 years ago)
Launch vehicle
Unknown
Launch site
Air Force Eastern Test Range (AFETR)
Object type
Payload
Rocket body
Debris
Shape & HBR
Unknown shape, 1.1 m
Radar Cross Section
Small (<0.1 m²)

Expand to show TLE details & history
Last TLE update: 17 hours ago

TLE from 17 hours ago
0 ATLAS 5 CENTAUR DEB
1 43959U 14055N   26071.69535052 -.00000084  00000-0  00000-0 0  9999
2 43959  19.8892 146.4848 5060778 157.1320 237.0593  1.81436933 49916
Epoch: 2026-03-12T16:41Z
TLE epoch observation values (Epoch: 2026-03-12T16:41:18.284Z)
Latitude
0.00003°
Longitude
85.81573°
Altitude
33,219.338 km
Speed
2.469 km/s
True Right ascension
09h 45m 56s
True Declination
0° 00' 00"
Sunlit
Object was in daylight at epoch
Visualization orbit readout
Latitude
Unknown
Longitude
Unknown
Altitude
Unknown
Speed
Unknown
Apparent Right ascension
Unknown
Apparent Declination
Unknown
Sunlit
N/A
Visualization observer readout
Local Sidereal Time
14:19:27
Azimuth
Unknown
Elevation
Unknown
Doppler factor
Unknown
Orbital elements
Apogee altitude
36,390.913 km
Perigee altitude
7,648.086 km
Semi-major axis
28,397.637 km
Eccentricity
0.50608
Inclination
19.8892°
RAAN
146.4848°
Arg. of periapsis
157.132°
True anomaly
202.84379°
Mean anomaly
237.0593°
Eccentric anomaly
218.86471°
Mean motion
0.45354 °/min
Orbital period
793.75 mins
BSTAR
0
Loading maneuver chart data...
Computing Atmospheric mass density...

Documentation

Showing up to 5 results
|